Torna al catalogo

CZ-4C R/B

AttivoPO
NORAD 57959·ROCKET BODY·🇨🇳 China

Lanciato Sep 26, 2023 da Jiuquan Satellite Launch Center

Loading…

Prossimi Passaggi (prossime 24 ore)

TLE

AggiornatoSource: Space-Track

Epoca: Sep 14, 2026, 12:46 UTC

1 57959U 23149B   26257.53205958  .00002041  00000-0  15074-3 0  9990
2 57959  98.1844 270.7146 0111651  71.7523 289.5812 14.99622614161993

Traccia CZ-4C R/B in tempo reale con AllMySat

Download on the App Store